DW4691 Weather Reports


Display with metric or nautical units.
time (UTC)temp
F
wind
direction
speed
MPH
gust
MPH
rain 1hr
in
rain 24hr
in
rain mn
in
humidity
%
barometer
mb
20260505223050 84 0 0.0 2.0 0.00 0.00 0.00 74 1006.2
20260505221550 84 0 0.0 3.0 0.00 0.00 0.00 75 1006.5
20260505220052 84 0 0.0 4.0 0.00 0.00 0.00 73 1006.5
20260505214548 84 0 0.0 7.0 0.00 0.00 0.00 74 1006.8
20260505213045 84 0 0.0 4.0 0.00 0.00 0.00 74 1007.0
20260505211549 85 0 0.0 4.0 0.00 0.00 0.00 71 1007.1
20260505210056 85 0 0.0 4.0 0.00 0.00 0.00 73 1007.1
20260505204549 85 116 0.0 4.0 0.00 0.00 0.00 74 1007.2
20260505203040 84 263 0.0 4.0 0.00 0.00 0.00 76 1007.4
20260505201549 84 0 0.0 5.0 0.00 0.00 0.00 76 1007.7
20260505200048 84 0 1.0 4.0 0.00 0.00 0.00 74 1007.9
20260505194545 84 0 0.0 9.0 0.00 0.00 0.00 76 1008.1
20260505193101 84 148 1.0 7.0 0.00 0.00 0.00 75 1008.3
20260505191543 84 0 0.0 5.0 0.00 0.00 0.00 75 1008.3
20260505190049 83 0 0.0 5.0 0.00 0.00 0.00 76 1008.4
20260505184549 83 0 0.0 6.0 0.00 0.00 0.00 79 1008.5
20260505183051 81 0 0.0 5.0 0.00 0.00 0.00 82 1008.7
20260505181546 80 0 0.0 3.0 0.00 0.00 0.00 82 1008.9
20260505180040 80 0 0.0 6.0 0.00 0.00 0.00 82 1008.9
20260505174549 80 0 0.0 4.0 0.00 0.00 0.00 82 1009.0
20260505173054 80 0 0.0 4.0 0.00 0.00 0.00 81 1009.1
20260505171544 80 89 1.0 6.0 0.00 0.00 0.00 81 1009.1
20260505170043 79 0 0.0 3.0 0.00 0.00 0.00 83 1009.2
20260505164551 79 0 0.0 7.0 0.00 0.00 0.00 84 1009.4
20260505163051 79 0 0.0 3.0 0.00 0.00 0.00 84 1009.4
20260505161548 78 0 0.0 1.0 0.00 0.00 0.00 85 1009.3
20260505153043 77 0 0.0 8.0 0.00 0.00 0.00 85 1009.0
20260505151538 77 141 0.0 7.0 0.00 0.00 0.00 85 1009.0
20260505124553 72 0 0.0 0.0 0.00 0.00 0.00 90 1008.5
20260505123042 72 0 0.0 0.0 0.00 0.00 0.00 90 1008.2
20260505121546 71 0 0.0 2.0 0.00 0.00 0.00 90 1008.5
20260505120046 71 0 0.0 0.0 0.00 0.00 0.00 90 1008.3
20260505114544 71 0 0.0 2.0 0.00 0.00 0.00 90 1008.0
20260505113044 71 0 0.0 3.0 0.00 0.00 0.00 90 1008.2
20260505111543 71 0 0.0 0.0 0.00 0.00 0.00 90 1008.3
20260505101550 71 0 0.0 0.0 0.00 0.00 0.00 89 1008.3
20260505100045 70 0 0.0 0.0 0.00 0.00 0.00 89 1008.3
20260505094547 70 0 0.0 0.0 0.00 0.00 0.00 89 1008.5
20260505093057 70 0 0.0 0.0 0.00 0.00 0.00 89 1008.5
20260505091549 70 0 0.0 0.0 0.00 0.00 0.00 89 1008.6
20260505090048 70 0 0.0 0.0 0.00 0.00 0.00 88 1008.6
20260505084553 70 0 0.0 0.0 0.00 0.00 0.00 88 1008.7
20260505083055 71 0 0.0 2.0 0.00 0.00 0.00 87 1008.7
20260505081556 71 0 0.0 1.0 0.00 0.00 0.00 87 1009.1
20260505080048 71 0 0.0 1.0 0.00 0.00 0.00 87 1009.1
20260505074549 71 0 0.0 0.0 0.00 0.00 0.00 87 1009.3
20260505073046 71 0 0.0 1.0 0.00 0.00 0.00 86 1009.3
20260505071547 71 0 0.0 3.0 0.00 0.00 0.00 86 1009.5
20260505070041 71 0 0.0 1.0 0.00 0.00 0.00 85 1009.7
20260505064546 71 0 0.0 1.0 0.00 0.00 0.00 85 1009.9
20260505063047 71 0 0.0 2.0 0.00 0.00 0.00 85 1009.8
20260505061552 71 0 0.0 3.0 0.00 0.00 0.00 84 1010.0
20260505060049 71 148 0.0 3.0 0.00 0.00 0.00 84 1010.2
20260505054555 71 0 0.0 5.0 0.00 0.00 0.00 84 1010.2
20260505053044 71 0 0.0 3.0 0.00 0.00 0.00 83 1010.4
20260505051541 71 0 0.0 1.0 0.00 0.00 0.00 83 1010.5
20260505041548 72 0 0.0 3.0 0.00 0.00 0.00 80 1010.6
20260505040044 73 0 0.0 9.0 0.00 0.00 0.00 79 1010.5
20260505034551 73 134 0.0 2.0 0.00 0.00 0.00 78 1010.7
20260505033046 73 0 0.0 4.0 0.00 0.00 0.00 78 1010.8
20260505031555 73 0 0.0 5.0 0.00 0.00 0.00 78 1011.0
20260505030100 74 0 0.0 5.0 0.00 0.00 0.00 77 1010.7
20260505024550 74 0 0.0 13.0 0.00 0.00 0.00 76 1010.6
20260505023047 75 0 0.0 5.0 0.00 0.00 0.00 75 1010.5
20260505021541 75 109 1.0 10.0 0.00 0.00 0.00 74 1010.4
20260505020050 75 0 0.0 4.0 0.00 0.00 0.00 75 1010.4
20260505014601 75 0 0.0 4.0 0.00 0.00 0.00 75 1010.2
20260505013044 75 0 0.0 4.0 0.00 0.00 0.00 75 1010.1
20260505011549 75 0 0.0 3.0 0.00 0.00 0.00 74 1009.7
20260505010041 76 0 0.0 4.0 0.00 0.00 0.00 73 1010.0
20260505004554 76 0 0.0 2.0 0.00 0.00 0.00 72 1009.9
20260505003044 77 0 0.0 4.0 0.00 0.00 0.00 70 1009.7
20260505001545 78 115 0.0 6.0 0.00 0.00 0.00 69 1009.8
20260505000047 78 0 0.0 2.0 0.00 0.00 0.00 68 1010.1
20260504234541 78 112 0.0 6.0 0.00 0.00 0.00 69 1010.0
20260504233046 79 0 0.0 7.0 0.00 0.00 0.00 67 1010.1
20260504231544 80 0 0.0 4.0 0.00 0.00 0.00 67 1010.2
20260504230053 80 0 0.0 4.0 0.00 0.00 0.00 64 1010.5
20260504224551 80 120 0.0 6.0 0.00 0.00 0.00 64 1010.5